This is the latest recevied weather packets stored in our database for station/object ON7AMI-5. If no packets are shown the sender has not sent any weather packets the latest 1 day(s).
| Time | Temp. | Humidity | Pressure | Rain* | Wind** | Luminosity | Snow |
|---|---|---|---|---|---|---|---|
| 1777990535 | 13.89° C | 96% | 1011.1 hPa | 0 mm | 0.45 m/s, 321° | - | - |
| 1777990236 | 13.89° C | 96% | 1011.1 hPa | 0 mm | 0.45 m/s, 37° | - | - |
| 1777989935 | 13.89° C | 96% | 1011.1 hPa | 0 mm | 1.79 m/s, 74° | - | - |
| 1777989635 | 13.33° C | 96% | 1011.1 hPa | 0 mm | 0.89 m/s, 296° | - | - |
| 1777989335 | 13.33° C | 96% | 1011.2 hPa | 0 mm | 0.89 m/s, 157° | - | - |
| 1777989035 | 13.33° C | 97% | 1011.2 hPa | 0 mm | 1.34 m/s, 157° | - | - |
| 1777988735 | 13.33° C | 97% | 1011.3 hPa | 0 mm | 0.45 m/s, 341° | - | - |
| 1777988436 | 13.89° C | 97% | 1011.3 hPa | 0 mm | 3.13 m/s, 71° | - | - |
| 1777988135 | 13.89° C | 97% | 1011.4 hPa | 0 mm | 1.34 m/s, 173° | - | - |
| 1777987836 | 13.89° C | 97% | 1011.4 hPa | 0 mm | 0.89 m/s, 28° | - | - |
| 1777987535 | 13.89° C | 97% | 1011.5 hPa | 0 mm | 2.24 m/s, 35° | - | - |
| 1777987236 | 13.89° C | 97% | 1011.6 hPa | 0 mm | 0.89 m/s, 25° | - | - |
| 1777986935 | 13.89° C | 97% | 1011.6 hPa | 0 mm | 1.34 m/s, 70° | - | - |
| 1777986635 | 13.89° C | 97% | 1011.5 hPa | 0 mm | 1.34 m/s, 322° | - | - |
| 1777986335 | 13.89° C | 97% | 1011.6 hPa | 0 mm | 1.79 m/s, 350° | - | - |
| 1777986035 | 13.89° C | 97% | 1011.6 hPa | 0 mm | 2.24 m/s, 102° | - | - |
| 1777985735 | 13.89° C | 97% | 1011.6 hPa | 0 mm | 1.34 m/s, 303° | - | - |
| 1777985435 | 13.89° C | 97% | 1011.6 hPa | 0 mm | 1.34 m/s, 258° | - | - |
| 1777985134 | 13.89° C | 97% | 1011.6 hPa | 0 mm | 1.79 m/s, 134° | - | - |
| 1777984835 | 13.89° C | 97% | 1011.6 hPa | 0 mm | 3.58 m/s, 35° | - | - |
| 1777984535 | 13.89° C | 97% | 1011.6 hPa | 0 mm | 4.02 m/s, 50° | - | - |
| 1777984236 | 14.44° C | 97% | 1011.6 hPa | 0 mm | 2.24 m/s, 11° | - | - |
| 1777983935 | 13.89° C | 97% | 1011.6 hPa | 0 mm | 0.89 m/s, 318° | - | - |
| 1777983635 | 13.33° C | 97% | 1011.7 hPa | 0 mm | 1.79 m/s, 348° | - | - |
| 1777983335 | 12.78° C | 97% | 1011.7 hPa | 0 mm | 1.34 m/s, 67° | - | - |
* Rain latest hour (hover to see other rain measurements)
** Current wind speed in m/s (hover to see current wind gust speed)